Voltar ao catálogo

STARLINK-3991

AtivoComunicaçõesVLEO
NORAD 52641·PAYLOAD·🇺🇸 United States

Lançado May 14, 2022 de Cape Canaveral Space Force Station

Loading…

Próximas Passagens (próximas 24 horas)

TLE

AtualizadoSource: CelesTrak SupGP

Época: Sep 14, 2026, 21:36 UTC

1 52641C 22052AV  26257.90048611 -.00028086  00000+0 -90327-3 0  2576
2 52641  53.1570 116.9779 0001302  87.0771 328.6941 15.31712278    18

Acompanhe STARLINK-3991 em tempo real com AllMySat

Download on the App Store